Flag for Netherlands Weather past 2 weeks in Eindhoven, Netherlands

Now
82 °F

Passing clouds.


Feels Like: 84 °F
Forecast: 64 / 83 °F
Wind: 10 mph from Northwest

Location: Eindhoven Airport

Current Time: Jul 4, 2015 at 8:03:18 PM

Latest Report: Jul 4, 2015 at 7:25 PM


Visibility: N/A

Pressure: 30.07 "Hg

Humidity: 55%

Dew point: 64 °F

Location of EindhovenLocation

Historic Weather in Eindhoven — Graph

°F

Eindhoven temperature yesterday

Maximum temperature yesterday: 90 °F (at 4:55 PM)
Minimum temperature yesterday: 63 °F (at 5:55 AM)
Average temperature yesterday: 78 °F

Past Weeks' High & Low Weather Summary

 TemperatureHumidityPressure
High97 °F (Jul 2, 2:55 PM)100% (Jun 20, 4:25 AM)30.24 "Hg (Jun 20, 4:25 AM)
Low48 °F (Jun 22, 10:25 PM)28% (Jul 1, 3:25 PM)29.71 "Hg (Jun 22, 4:55 PM)
Average67 °F67%30.06 "Hg
* Reported Jun 19 6:25 PM — Jul 4 6:55 PM, Eindhoven, Weather by CustomWeather, © 2015

Note: Actual official high and low records may vary slightly from our data, if they occured in-between our weather recording intervals... More about our weather records

Advertising

Eindhoven weather history for previous 24 hours

 ConditionsComfort  
Time TempWeatherWind HumidityBarometerVisibility
6:55 PM
Sat, Jul 4
82 °FOvercast.10 mph42%30.07 "HgN/A
6:25 PM86 °FOvercast.10 mph43%30.07 "HgN/A
5:55 PM90 °FPartly sunny.10 mph38%30.07 "HgN/A
5:25 PM91 °FPartly sunny.8 mph36%30.07 "HgN/A
4:55 PM91 °FPartly sunny.7 mph34%30.07 "HgN/A
4:25 PM95 °FExtremely hot.9 mph32%30.07 "HgN/A
3:55 PM91 °FOvercast.6 mph36%30.07 "HgN/A
3:25 PM93 °FOvercast.8 mph36%30.07 "HgN/A
2:55 PM93 °FExtremely hot.10 mph32%30.07 "HgN/A
2:25 PM95 °FPassing clouds.13 mph36%30.07 "HgN/A
1:55 PM95 °FExtremely hot.13 mph36%30.07 "HgN/A
1:25 PM95 °FPassing clouds.10 mph39%30.04 "HgN/A
12:55 PM93 °FExtremely hot.10 mph41%30.04 "HgN/A
12:25 PM93 °FPassing clouds.12 mph41%30.04 "HgN/A
11:55 AM91 °FPassing clouds.8 mph46%30.04 "HgN/A
11:25 AM90 °FPassing clouds.9 mph49%30.04 "HgN/A
10:55 AM90 °FHot.10 mph49%30.04 "HgN/A
10:25 AM88 °FWarm.14 mph52%30.01 "HgN/A
9:55 AM88 °FPassing clouds.10 mph52%30.01 "HgN/A
9:25 AM84 °FPartly sunny.8 mph62%30.01 "HgN/A
8:55 AM82 °FPartly sunny.7 mph66%30.01 "HgN/A
8:25 AM81 °FPartly sunny.7 mph66%30.01 "HgN/A
7:55 AM77 °FWarm.7 mph74%30.01 "HgN/A
7:25 AM77 °FScattered clouds.7 mph74%30.01 "HgN/A
6:55 AM75 °FHigh level clouds.6 mph78%30.01 "HgN/A
6:25 AM75 °FMild.6 mph74%30.01 "HgN/A
5:55 AM75 °FMild.7 mph74%30.01 "HgN/A
5:25 AM75 °FPassing clouds.7 mph74%30.04 "HgN/A
4:55 AM75 °FOvercast.8 mph74%30.04 "HgN/A
4:25 AM75 °FPassing clouds.7 mph74%30.04 "HgN/A
3:55 AM77 °FPassing clouds.8 mph69%30.07 "HgN/A
3:25 AM77 °FPassing clouds.8 mph69%30.07 "HgN/A
2:55 AM77 °FWarm.8 mph69%30.07 "HgN/A
2:25 AM77 °FPassing clouds.9 mph69%30.09 "HgN/A
1:55 AM79 °FPassing clouds.9 mph65%30.09 "HgN/A
1:25 AM79 °FWarm.9 mph65%30.09 "HgN/A
12:55 AM79 °FWarm.12 mph65%30.09 "HgN/A
12:25 AM79 °FPassing clouds.12 mph65%30.12 "HgN/A
11:55 PM
Fri, Jul 3
79 °FWarm.10 mph65%30.12 "HgN/A
11:25 PM79 °FClear.10 mph65%30.12 "HgN/A
10:55 PM81 °FWarm.12 mph62%30.12 "HgN/A
10:25 PM81 °FWarm.10 mph62%30.12 "HgN/A
10:03 PM81 °FWarm.8 mph66%30.12 "HgN/A
9:55 PM82 °FPassing clouds.8 mph62%30.12 "HgN/A
9:25 PM84 °FPassing clouds.9 mph58%30.12 "HgN/A
8:55 PM86 °FPartly sunny.12 mph52%30.12 "HgN/A
8:25 PM86 °FWarm.10 mph52%30.15 "HgN/A
Weather by CustomWeather, © 2015

See weather overviewHow to use our weather pages